West Palm Beach, FL

11:50 AM EST on December 10, 2019 (GMT -0500)
Palm Beach International

Weather History for KPBI - October, 2019

Change the Weather History Date:

Monday, October 28, 2019

  Actual Average Record
Temperature  
Mean Temperature 80 °F 76 °F  
Max Temperature 85 °F 83 °F 91 °F (1972)
Min Temperature 75 °F 69 °F 48 °F (1890)
Degree Days  
Heating Degree Days 0 0  
Month to date heating degree days 0 0  
Since 1 July heating degree days 0 0  
Cooling Degree Days 15 11  
Month to date cooling degree days 471 381  
Year to date cooling degree days 4180 3589  
Growing Degree Days 30 (Base 50)    
Moisture  
Dew Point 75 °F    
Average Humidity 85    
Maximum Humidity 100    
Minimum Humidity 69    
Precipitation  
Precipitation 0.17 in 0.15 in 7.52 in (1895)
Month to date precipitation 5.33 4.72  
Year to date precipitation 53.32 53.79  
Snow  
Snow 0.00 in - - ()
Month to date snowfall 0.0  
Since 1 July snowfall 0.0  
Since 1 September snowfall 0.0  
Snow Depth 0.00 in    
Sea Level Pressure  
Sea Level Pressure 30.04 in    
Wind  
Wind Speed 6 mph (ESE)    
Max Wind Speed 13 mph    
Max Gust Speed 17 mph    
Visibility 9 miles    
Events Rain    
T = Trace of Precipitation, MM = Missing Value Source: NWS Daily Summary

Daily Weather History Graph

Daily Weather History Graph

Search for Another Location

Airport or City:

Astronomy

Oct. 28, 2019 Rise Set
Actual Time 7:27 AM EDT 6:40 PM EDT
Civil Twilight 7:03 AM EDT 7:04 PM EDT
Nautical Twilight 6:36 AM EDT 7:31 PM EDT
Astronomical Twilight 6:09 AM EDT 7:58 PM EDT
Moon 7:49 AM EDT (10/28) 7:25 PM EDT (10/28)
Length of Visible Light 12h 01m
Length of Day
11h 13m
New Moon, 0% of the Moon is Illuminated
Oct 28
New Moon
Nov 4
First Quarter
Nov 12
Full
Nov 19
Last Quarter
Nov 26
New

Hourly Weather History & Observations

Time (EDT) Temp. Heat Index Dew Point Humidity Pressure Visibility Wind Dir Wind Speed Gust Speed Precip Events Conditions
12:53 AM 79.0 °F - 75.0 °F 88% 30.02 in 10.0 mi South 4.6 mph - N/A   Scattered Clouds
1:53 AM 78.1 °F - 73.9 °F 87% 30.01 in 10.0 mi Calm Calm - N/A   Mostly Cloudy
2:53 AM 75.9 °F - 73.9 °F 94% 30.00 in 10.0 mi Calm Calm - N/A   Mostly Cloudy
3:53 AM 75.9 °F - 73.9 °F 94% 30.00 in 10.0 mi Calm Calm - N/A   Scattered Clouds
4:53 AM 75.9 °F - 73.9 °F 94% 30.00 in 10.0 mi Calm Calm - N/A   Scattered Clouds
5:53 AM 75.0 °F - 73.9 °F 96% 30.01 in 10.0 mi Calm Calm - N/A   Scattered Clouds
6:53 AM 75.9 °F - 75.0 °F 97% 30.02 in 10.0 mi Calm Calm - 0.00 in   Mostly Cloudy
7:53 AM 77.0 °F - 75.9 °F 96% 30.04 in 10.0 mi Calm Calm - N/A   Scattered Clouds
8:53 AM 80.1 °F 85.4 °F 75.9 °F 87% 30.05 in 10.0 mi SSE 5.8 mph - N/A   Scattered Clouds
9:53 AM 82.9 °F 90.2 °F 75.0 °F 77% 30.07 in 10.0 mi SSE 6.9 mph - N/A   Mostly Cloudy
10:53 AM 82.9 °F 87.5 °F 71.1 °F 67% 30.08 in 10.0 mi SE 8.1 mph - N/A   Mostly Cloudy
11:53 AM 84.0 °F 91.9 °F 75.0 °F 74% 30.08 in 10.0 mi East 9.2 mph - N/A   Scattered Clouds
12:53 PM 82.9 °F 89.4 °F 73.9 °F 74% 30.07 in 10.0 mi ESE 10.4 mph - N/A   Scattered Clouds
1:53 PM 84.9 °F 93.3 °F 75.0 °F 72% 30.04 in 10.0 mi ESE 10.4 mph - N/A   Mostly Cloudy
2:53 PM 84.9 °F 92.1 °F 73.9 °F 69% 30.01 in 10.0 mi SE 8.1 mph - N/A   Mostly Cloudy
3:53 PM 84.0 °F 91.2 °F 73.9 °F 72% 30.01 in 10.0 mi East 9.2 mph - N/A   Scattered Clouds
4:53 PM 84.0 °F 90.2 °F 73.0 °F 69% 30.01 in 10.0 mi ESE 12.7 mph - N/A   Scattered Clouds
5:53 PM 82.9 °F 88.0 °F 72.0 °F 69% 30.01 in 10.0 mi East 11.5 mph - N/A   Scattered Clouds
6:53 PM 81.0 °F 85.8 °F 73.0 °F 77% 30.03 in 10.0 mi ESE 10.4 mph - N/A   Scattered Clouds
7:53 PM 81.0 °F 86.2 °F 73.9 °F 79% 30.04 in 10.0 mi East 9.2 mph - N/A   Scattered Clouds
8:53 PM 81.0 °F 86.7 °F 75.0 °F 82% 30.06 in 10.0 mi East 8.1 mph - N/A   Scattered Clouds
9:53 PM 79.0 °F - 75.9 °F 90% 30.06 in 4.0 mi ESE 4.6 mph - 0.07 in Rain Light Rain
10:39 PM 80.1 °F 85.8 °F 77.0 °F 90% 30.08 in 1.0 mi Variable 4.6 mph - 0.02 in Rain Heavy Rain
10:45 PM 79.0 °F - 75.9 °F 90% 30.08 in 3.0 mi ENE 5.8 mph - 0.09 in Rain Rain
10:53 PM 79.0 °F - 77.0 °F 94% 30.08 in 9.0 mi East 3.5 mph - 0.10 in Rain Rain
11:12 PM 79.0 °F - 77.0 °F 94% 30.07 in 10.0 mi East 5.8 mph - 0.00 in   Mostly Cloudy
11:53 PM 79.0 °F - 75.9 °F 90% 30.06 in 10.0 mi ESE 8.1 mph - 0.00 in   Scattered Clouds